Time,TemperatureF,DewpointF,PressureIn,WindDirection,WindDirectionDegrees,WindSpeedMPH,WindSpeedGustMPH,Humidity,HourlyPrecipIn,Conditions,Clouds,dailyrainin,SoftwareType,DateUTC
2013-01-08 00:00:00,21.4,0.3,30.31,NNW,332,0.0,2.0,39,0.00,,---,0.00,VWS V14.01,2013-01-08 05:00:00,
2013-01-08 00:01:00,21.4,0.3,30.31,NNW,332,0.0,1.0,39,0.00,,---,0.00,VWS V14.01,2013-01-08 05:01:00,
2013-01-08 00:02:00,21.4,0.3,30.31,NNW,332,0.0,1.0,39,0.00,,---,0.00,VWS V14.01,2013-01-08 05:02:00,
2013-01-08 00:07:00,21.4,0.3,30.31,NNW,332,0.0,1.0,39,0.00,,---,0.00,VWS V14.01,2013-01-08 05:07:00,
2013-01-08 00:12:00,21.3,0.2,30.31,NNW,332,0.0,1.0,39,0.00,,---,0.00,VWS V14.01,2013-01-08 05:12:00,
2013-01-08 00:17:00,21.3,0.2,30.31,NNW,332,0.0,1.0,39,0.00,,---,0.00,VWS V14.01,2013-01-08 05:17:00,
2013-01-08 00:22:00,21.3,0.2,30.31,NNW,332,0.0,1.0,39,0.00,,---,0.00,VWS V14.01,2013-01-08 05:22:00,
2013-01-08 00:27:00,21.3,0.2,30.31,NNW,332,0.0,1.0,39,0.00,,---,0.00,VWS V14.01,2013-01-08 05:27:00,
2013-01-08 00:30:00,22.1,0.9,30.32,NNW,332,1.0,1.0,39,0.00,,---,0.00,VWS V14.01,2013-01-08 05:30:00,
2013-01-08 00:32:00,21.1,0.0,30.32,NNW,332,0.0,1.0,39,0.00,,---,0.00,VWS V14.01,2013-01-08 05:32:00,
2013-01-08 00:37:00,21.1,0.0,30.32,NNW,332,0.0,1.0,39,0.00,,---,0.00,VWS V14.01,2013-01-08 05:37:00,
2013-01-08 00:42:00,21.1,0.0,30.32,NNW,332,0.0,1.0,39,0.00,,---,0.00,VWS V14.01,2013-01-08 05:42:00,
2013-01-08 00:47:00,21.1,0.0,30.32,NNW,332,0.0,1.0,39,0.00,,---,0.00,VWS V14.01,2013-01-08 05:47:00,
2013-01-08 00:52:00,21.1,0.0,30.32,NNW,332,0.0,1.0,39,0.00,,---,0.00,VWS V14.01,2013-01-08 05:52:00,
2013-01-08 00:57:00,21.0,-0.1,30.32,NNW,332,0.0,1.0,39,0.00,,---,0.00,VWS V14.01,2013-01-08 05:57:00,
2013-01-08 01:00:00,21.4,0.3,30.31,NNW,332,0.0,2.0,39,0.00,,---,0.00,VWS V14.01,2013-01-08 06:00:00,
2013-01-08 01:02:00,21.0,-0.1,30.32,NNW,332,0.0,0.0,39,0.00,,---,0.00,VWS V14.01,2013-01-08 06:02:00,
2013-01-08 01:07:00,20.8,-0.2,30.32,NNW,332,0.0,0.0,39,0.00,,---,0.00,VWS V14.01,2013-01-08 06:07:00,
2013-01-08 01:12:00,20.8,-0.2,30.32,NNW,332,0.0,0.0,39,0.00,,---,0.00,VWS V14.01,2013-01-08 06:12:00,
2013-01-08 01:17:00,20.8,-0.2,30.32,NNW,332,0.0,0.0,39,0.00,,---,0.00,VWS V14.01,2013-01-08 06:17:00,
2013-01-08 01:22:00,20.8,-0.2,30.32,NNW,332,0.0,0.0,39,0.00,,---,0.00,VWS V14.01,2013-01-08 06:22:00,
2013-01-08 01:27:00,20.8,-0.2,30.32,NNW,332,0.0,0.0,39,0.00,,---,0.00,VWS V14.01,2013-01-08 06:27:00,
2013-01-08 01:30:00,21.3,0.2,30.32,NNW,332,1.0,2.0,39,0.00,,---,0.00,VWS V14.01,2013-01-08 06:30:00,
2013-01-08 01:32:00,20.6,-0.4,30.32,NNW,332,0.0,0.0,39,0.00,,---,0.00,VWS V14.01,2013-01-08 06:32:00,
2013-01-08 01:37:00,20.6,-0.4,30.32,NNW,332,0.0,0.0,39,0.00,,---,0.00,VWS V14.01,2013-01-08 06:37:00,
2013-01-08 01:42:00,20.5,-0.5,30.32,NNW,332,0.0,0.0,39,0.00,,---,0.00,VWS V14.01,2013-01-08 06:42:00,
2013-01-08 01:47:00,20.5,-0.5,30.32,NNW,332,0.0,1.0,39,0.00,,---,0.00,VWS V14.01,2013-01-08 06:47:00,
2013-01-08 01:52:00,20.5,-0.5,30.32,NNW,332,0.0,1.0,39,0.00,,---,0.00,VWS V14.01,2013-01-08 06:52:00,
2013-01-08 01:57:00,20.5,-0.5,30.32,NNW,332,0.0,1.0,39,0.00,,---,0.00,VWS V14.01,2013-01-08 06:57:00,
2013-01-08 02:00:00,21.0,-0.1,30.32,NNW,333,0.0,1.0,39,0.00,,---,0.00,VWS V14.01,2013-01-08 07:00:00,
2013-01-08 02:02:00,20.5,-0.5,30.32,NNW,332,1.0,1.0,39,0.00,,---,0.00,VWS V14.01,2013-01-08 07:02:00,
2013-01-08 02:07:00,20.5,-0.5,30.32,NNW,332,0.0,1.0,39,0.00,,---,0.00,VWS V14.01,2013-01-08 07:07:00,
2013-01-08 02:12:00,20.5,-0.5,30.32,NNW,332,0.0,1.0,39,0.00,,---,0.00,VWS V14.01,2013-01-08 07:12:00,
2013-01-08 02:17:00,20.3,-0.7,30.32,NNW,332,0.0,1.0,39,0.00,,---,0.00,VWS V14.01,2013-01-08 07:17:00,
2013-01-08 02:22:00,20.3,-0.7,30.32,NNW,332,0.0,1.0,39,0.00,,---,0.00,VWS V14.01,2013-01-08 07:22:00,
2013-01-08 02:27:00,20.3,-0.7,30.32,NNW,332,0.0,1.0,39,0.00,,---,0.00,VWS V14.01,2013-01-08 07:27:00,
2013-01-08 02:30:00,20.8,-0.2,30.32,NNW,332,0.0,0.0,39,0.00,,---,0.00,VWS V14.01,2013-01-08 07:30:00,
2013-01-08 02:32:00,20.3,-0.7,30.31,NNW,332,0.0,0.0,39,0.00,,---,0.00,VWS V14.01,2013-01-08 07:32:00,
2013-01-08 02:37:00,20.3,-0.7,30.31,NNW,332,0.0,0.0,39,0.00,,---,0.00,VWS V14.01,2013-01-08 07:37:00,
2013-01-08 02:42:00,20.3,-0.7,30.31,NNW,332,2.0,2.0,39,0.00,,---,0.00,VWS V14.01,2013-01-08 07:42:00,
2013-01-08 02:47:00,20.2,-0.8,30.31,NNW,332,1.0,2.0,39,0.00,,---,0.00,VWS V14.01,2013-01-08 07:47:00,
2013-01-08 02:52:00,20.2,-0.8,30.31,NNW,332,0.0,2.0,39,0.00,,---,0.00,VWS V14.01,2013-01-08 07:52:00,
2013-01-08 02:57:00,20.2,-0.8,30.31,NNW,332,0.0,2.0,39,0.00,,---,0.00,VWS V14.01,2013-01-08 07:57:00,
2013-01-08 03:00:00,20.5,-0.5,30.32,NNW,332,0.0,1.0,39,0.00,,---,0.00,VWS V14.01,2013-01-08 08:00:00,
2013-01-08 03:02:00,20.2,-0.8,30.30,NNW,332,0.0,0.0,39,0.00,,---,0.00,VWS V14.01,2013-01-08 08:02:00,
2013-01-08 03:07:00,20.2,-0.8,30.30,NNW,332,0.0,1.0,39,0.00,,---,0.00,VWS V14.01,2013-01-08 08:07:00,
2013-01-08 03:12:00,20.0,-1.0,30.30,NNW,332,0.0,1.0,39,0.00,,---,0.00,VWS V14.01,2013-01-08 08:12:00,
2013-01-08 03:17:00,20.0,-1.0,30.30,NNW,332,0.0,1.0,39,0.00,,---,0.00,VWS V14.01,2013-01-08 08:17:00,
2013-01-08 03:22:00,20.0,-1.0,30.30,NNW,332,0.0,2.0,39,0.00,,---,0.00,VWS V14.01,2013-01-08 08:22:00,
2013-01-08 03:27:00,19.9,-1.0,30.30,NNW,332,0.0,2.0,39,0.00,,---,0.00,VWS V14.01,2013-01-08 08:27:00,
2013-01-08 03:30:00,20.3,-0.7,30.31,NNW,332,0.0,2.0,39,0.00,,---,0.00,VWS V14.01,2013-01-08 08:30:00,
2013-01-08 03:32:00,19.9,-1.0,30.29,NNW,332,0.0,0.0,39,0.00,,---,0.00,VWS V14.01,2013-01-08 08:32:00,
2013-01-08 03:37:00,19.9,-1.0,30.29,NNW,332,0.0,0.0,39,0.00,,---,0.00,VWS V14.01,2013-01-08 08:37:00,
2013-01-08 03:42:00,19.9,-1.0,30.29,NNW,332,0.0,0.0,39,0.00,,---,0.00,VWS V14.01,2013-01-08 08:42:00,
2013-01-08 03:47:00,19.9,-1.0,30.28,NNW,332,0.0,0.0,39,0.00,,---,0.00,VWS V14.01,2013-01-08 08:47:00,
2013-01-08 03:52:00,19.9,-1.0,30.28,NNW,332,0.0,1.0,39,0.00,,---,0.00,VWS V14.01,2013-01-08 08:52:00,
2013-01-08 03:57:00,19.9,-1.0,30.28,NNW,332,0.0,1.0,39,0.00,,---,0.00,VWS V14.01,2013-01-08 08:57:00,
2013-01-08 04:00:00,20.2,-0.8,30.30,NNW,332,0.0,2.0,39,0.00,,---,0.00,VWS V14.01,2013-01-08 09:00:00,
2013-01-08 04:02:00,19.7,-1.2,30.29,NNW,332,0.0,0.0,39,0.00,,---,0.00,VWS V14.01,2013-01-08 09:02:00,
2013-01-08 04:07:00,19.7,-1.2,30.29,NNW,332,0.0,0.0,39,0.00,,---,0.00,VWS V14.01,2013-01-08 09:07:00,
2013-01-08 04:12:00,19.9,-1.0,30.29,NNW,332,0.0,0.0,39,0.00,,---,0.00,VWS V14.01,2013-01-08 09:12:00,
2013-01-08 04:17:00,19.7,-1.2,30.29,NNW,332,0.0,0.0,39,0.00,,---,0.00,VWS V14.01,2013-01-08 09:17:00,
2013-01-08 04:22:00,19.7,-1.2,30.29,NNW,332,0.0,0.0,39,0.00,,---,0.00,VWS V14.01,2013-01-08 09:22:00,
2013-01-08 04:27:00,19.5,-1.4,30.29,NNW,332,0.0,0.0,39,0.00,,---,0.00,VWS V14.01,2013-01-08 09:27:00,
2013-01-08 04:30:00,19.9,-1.0,30.29,NNW,332,0.0,2.0,39,0.00,,---,0.00,VWS V14.01,2013-01-08 09:30:00,
2013-01-08 04:32:00,19.5,-1.4,30.29,NNW,332,0.0,0.0,39,0.00,,---,0.00,VWS V14.01,2013-01-08 09:32:00,
2013-01-08 04:37:00,19.5,-1.4,30.29,NNW,332,0.0,0.0,39,0.00,,---,0.00,VWS V14.01,2013-01-08 09:37:00,
2013-01-08 04:42:00,19.5,-1.4,30.29,NNW,332,0.0,0.0,39,0.00,,---,0.00,VWS V14.01,2013-01-08 09:42:00,
2013-01-08 04:47:00,19.5,-1.4,30.30,NNW,332,0.0,0.0,39,0.00,,---,0.00,VWS V14.01,2013-01-08 09:47:00,
2013-01-08 04:52:00,19.5,-1.4,30.30,NNW,332,0.0,0.0,39,0.00,,---,0.00,VWS V14.01,2013-01-08 09:52:00,
2013-01-08 04:57:00,19.4,-1.5,30.30,NNW,332,0.0,0.0,39,0.00,,---,0.00,VWS V14.01,2013-01-08 09:57:00,
2013-01-08 05:00:00,19.7,-1.2,30.29,NNW,332,0.0,1.0,39,0.00,,---,0.00,VWS V14.01,2013-01-08 10:00:00,
2013-01-08 05:02:00,19.4,-1.5,30.30,NNW,332,0.0,0.0,39,0.00,,---,0.00,VWS V14.01,2013-01-08 10:02:00,
2013-01-08 05:07:00,19.4,-1.5,30.30,NNW,332,0.0,0.0,39,0.00,,---,0.00,VWS V14.01,2013-01-08 10:07:00,
2013-01-08 05:12:00,19.4,-1.5,30.30,NNW,332,0.0,0.0,39,0.00,,---,0.00,VWS V14.01,2013-01-08 10:12:00,
2013-01-08 05:17:00,19.2,-1.7,30.30,NNW,332,0.0,0.0,39,0.00,,---,0.00,VWS V14.01,2013-01-08 10:17:00,
2013-01-08 05:22:00,19.2,-1.7,30.30,NNW,332,0.0,0.0,39,0.00,,---,0.00,VWS V14.01,2013-01-08 10:22:00,
2013-01-08 05:27:00,19.2,-1.7,30.30,NNW,332,0.0,1.0,39,0.00,,---,0.00,VWS V14.01,2013-01-08 10:27:00,
2013-01-08 05:30:00,19.5,-1.4,30.29,NNW,332,0.0,0.0,39,0.00,,---,0.00,VWS V14.01,2013-01-08 10:30:00,
2013-01-08 05:32:00,19.2,-1.7,30.30,NNW,332,0.0,0.0,39,0.00,,---,0.00,VWS V14.01,2013-01-08 10:32:00,
2013-01-08 05:37:00,19.1,-1.8,30.30,NNW,332,0.0,0.0,39,0.00,,---,0.00,VWS V14.01,2013-01-08 10:37:00,
2013-01-08 05:42:00,19.1,-1.8,30.30,NNW,332,0.0,1.0,39,0.00,,---,0.00,VWS V14.01,2013-01-08 10:42:00,
2013-01-08 05:47:00,19.1,-1.8,30.30,NNW,332,0.0,1.0,39,0.00,,---,0.00,VWS V14.01,2013-01-08 10:47:00,
2013-01-08 05:52:00,19.1,-1.8,30.30,NNW,332,0.0,1.0,39,0.00,,---,0.00,VWS V14.01,2013-01-08 10:52:00,
2013-01-08 05:57:00,19.1,-1.8,30.30,NNW,332,0.0,1.0,39,0.00,,---,0.00,VWS V14.01,2013-01-08 10:57:00,
2013-01-08 06:00:00,19.4,-1.5,30.30,NNW,332,0.0,0.0,39,0.00,,---,0.00,VWS V14.01,2013-01-08 11:00:00,
2013-01-08 06:02:00,19.1,-1.8,30.31,NNW,332,0.0,1.0,39,0.00,,---,0.00,VWS V14.01,2013-01-08 11:02:00,
2013-01-08 06:07:00,19.1,-1.8,30.31,NNW,332,0.0,1.0,39,0.00,,---,0.00,VWS V14.01,2013-01-08 11:07:00,
2013-01-08 06:12:00,18.9,-2.0,30.31,NNW,332,0.0,1.0,39,0.00,,---,0.00,VWS V14.01,2013-01-08 11:12:00,
2013-01-08 06:17:00,19.1,-1.8,30.32,NNW,332,0.0,1.0,39,0.00,,---,0.00,VWS V14.01,2013-01-08 11:17:00,
2013-01-08 06:22:00,18.9,-2.0,30.32,NNW,332,0.0,1.0,39,0.00,,---,0.00,VWS V14.01,2013-01-08 11:22:00,
2013-01-08 06:27:00,18.9,-2.0,30.32,NNW,332,0.0,1.0,39,0.00,,---,0.00,VWS V14.01,2013-01-08 11:27:00,
2013-01-08 06:30:00,19.2,-1.7,30.30,NNW,332,0.0,1.0,39,0.00,,---,0.00,VWS V14.01,2013-01-08 11:30:00,
2013-01-08 06:32:00,18.9,-2.0,30.32,NNW,332,0.0,0.0,39,0.00,,---,0.00,VWS V14.01,2013-01-08 11:32:00,
2013-01-08 06:37:00,18.8,-2.0,30.32,NNW,332,0.0,0.0,39,0.00,,---,0.00,VWS V14.01,2013-01-08 11:37:00,
2013-01-08 06:42:00,18.8,-2.0,30.32,NNW,332,0.0,0.0,39,0.00,,---,0.00,VWS V14.01,2013-01-08 11:42:00,
2013-01-08 06:47:00,18.8,-2.0,30.32,NNW,332,0.0,0.0,39,0.00,,---,0.00,VWS V14.01,2013-01-08 11:47:00,
2013-01-08 06:52:00,18.8,-2.0,30.32,NNW,332,0.0,0.0,39,0.00,,---,0.00,VWS V14.01,2013-01-08 11:52:00,
2013-01-08 06:57:00,18.8,-2.0,30.32,NNW,332,0.0,0.0,39,0.00,,---,0.00,VWS V14.01,2013-01-08 11:57:00,
2013-01-08 07:00:00,19.1,-1.8,30.31,NNW,332,0.0,1.0,39,0.00,,---,0.00,VWS V14.01,2013-01-08 12:00:00,
2013-01-08 07:02:00,18.8,-2.0,30.33,NNW,332,0.0,0.0,39,0.00,,---,0.00,VWS V14.01,2013-01-08 12:02:00,
2013-01-08 07:07:00,18.9,-2.0,30.33,NNW,332,0.0,0.0,39,0.00,,---,0.00,VWS V14.01,2013-01-08 12:07:00,
2013-01-08 07:12:00,18.9,-2.0,30.33,NNW,332,1.0,1.0,39,0.00,,---,0.00,VWS V14.01,2013-01-08 12:12:00,
2013-01-08 07:17:00,18.9,-2.0,30.33,NNW,332,0.0,1.0,39,0.00,,---,0.00,VWS V14.01,2013-01-08 12:17:00,
2013-01-08 07:22:00,18.9,-2.0,30.33,NNW,332,0.0,1.0,39,0.00,,---,0.00,VWS V14.01,2013-01-08 12:22:00,
2013-01-08 07:27:00,19.1,-1.8,30.33,NNW,332,0.0,2.0,39,0.00,,---,0.00,VWS V14.01,2013-01-08 12:27:00,
2013-01-08 07:30:00,18.9,-2.0,30.32,NNW,332,0.0,1.0,39,0.00,,---,0.00,VWS V14.01,2013-01-08 12:30:00,
2013-01-08 07:32:00,19.2,-1.7,30.34,NNW,333,1.0,1.0,39,0.00,,---,0.00,VWS V14.01,2013-01-08 12:32:00,
2013-01-08 07:37:00,19.2,-1.7,30.34,NNW,332,1.0,2.0,39,0.00,,---,0.00,VWS V14.01,2013-01-08 12:37:00,
2013-01-08 07:42:00,19.4,-1.5,30.34,NNW,332,1.0,2.0,39,0.00,,---,0.00,VWS V14.01,2013-01-08 12:42:00,
2013-01-08 07:47:00,19.5,-1.4,30.35,NNW,332,0.0,2.0,39,0.00,,---,0.00,VWS V14.01,2013-01-08 12:47:00,
2013-01-08 07:52:00,19.9,-1.0,30.35,NNW,333,0.0,2.0,39,0.00,,---,0.00,VWS V14.01,2013-01-08 12:52:00,
2013-01-08 07:57:00,20.0,-1.0,30.35,NNW,332,0.0,2.0,39,0.00,,---,0.00,VWS V14.01,2013-01-08 12:57:00,
2013-01-08 08:00:00,18.8,-2.0,30.33,NNW,332,0.0,0.0,39,0.00,,---,0.00,VWS V14.01,2013-01-08 13:00:00,
2013-01-08 08:02:00,20.2,-0.8,30.36,NNW,333,0.0,1.0,39,0.00,,---,0.00,VWS V14.01,2013-01-08 13:02:00,
2013-01-08 08:07:00,20.5,-0.5,30.36,NNW,333,0.0,1.0,39,0.00,,---,0.00,VWS V14.01,2013-01-08 13:07:00,
2013-01-08 08:12:00,21.0,-0.1,30.36,NNW,332,0.0,1.0,39,0.00,,---,0.00,VWS V14.01,2013-01-08 13:12:00,
2013-01-08 08:17:00,21.6,0.5,30.36,NNW,333,0.0,1.0,39,0.00,,---,0.00,VWS V14.01,2013-01-08 13:17:00,
2013-01-08 08:22:00,22.4,1.2,30.36,NNW,333,0.0,1.0,39,0.00,,---,0.00,VWS V14.01,2013-01-08 13:22:00,
2013-01-08 08:27:00,23.3,2.0,30.36,NNW,333,0.0,1.0,39,0.00,,---,0.00,VWS V14.01,2013-01-08 13:27:00,
2013-01-08 08:30:00,19.1,-1.8,30.34,NNW,332,0.0,2.0,39,0.00,,---,0.00,VWS V14.01,2013-01-08 13:30:00,
2013-01-08 08:32:00,24.1,2.7,30.36,NNW,333,0.0,0.0,39,0.00,,---,0.00,VWS V14.01,2013-01-08 13:32:00,
2013-01-08 08:37:00,25.0,3.5,30.36,NNW,333,0.0,0.0,39,0.00,,---,0.00,VWS V14.01,2013-01-08 13:37:00,
2013-01-08 08:42:00,25.6,4.1,30.36,NNW,333,0.0,0.0,39,0.00,,---,0.00,VWS V14.01,2013-01-08 13:42:00,
2013-01-08 08:47:00,26.0,4.4,30.36,NNW,333,0.0,0.0,39,0.00,,---,0.00,VWS V14.01,2013-01-08 13:47:00,
2013-01-08 08:52:00,26.1,4.5,30.36,NNW,333,0.0,2.0,39,0.00,,---,0.00,VWS V14.01,2013-01-08 13:52:00,
2013-01-08 08:57:00,26.7,5.1,30.36,NNW,333,0.0,2.0,39,0.00,,---,0.00,VWS V14.01,2013-01-08 13:57:00,
2013-01-08 09:00:00,20.2,-0.8,30.36,NNW,332,0.0,2.0,39,0.00,,---,0.00,VWS V14.01,2013-01-08 14:00:00,
2013-01-08 09:02:00,27.5,5.8,30.36,NW,323,0.0,2.0,39,0.00,,---,0.00,VWS V14.01,2013-01-08 14:02:00,
2013-01-08 09:07:00,28.5,6.7,30.36,NW,323,0.0,2.0,39,0.00,,---,0.00,VWS V14.01,2013-01-08 14:07:00,
2013-01-08 09:12:00,30.0,8.1,30.36,NW,319,2.0,4.0,39,0.00,,---,0.00,VWS V14.01,2013-01-08 14:12:00,
2013-01-08 09:17:00,32.4,10.2,30.36,West,274,2.0,6.0,39,0.00,,---,0.00,VWS V14.01,2013-01-08 14:17:00,
2013-01-08 09:22:00,34.3,11.9,30.36,WNW,284,2.0,6.0,39,0.00,,---,0.00,VWS V14.01,2013-01-08 14:22:00,
2013-01-08 09:27:00,36.5,13.9,30.36,SSW,201,5.0,9.0,39,0.00,,---,0.00,VWS V14.01,2013-01-08 14:27:00,
2013-01-08 09:30:00,23.8,2.5,30.36,NNW,333,0.0,1.0,39,0.00,,---,0.00,VWS V14.01,2013-01-08 14:30:00,
2013-01-08 09:32:00,38.0,14.7,30.36,West,271,4.0,10.0,38,0.00,,---,0.00,VWS V14.01,2013-01-08 14:32:00,
2013-01-08 09:38:00,39.2,15.7,30.36,South,191,6.0,14.0,38,0.00,,---,0.00,VWS V14.01,2013-01-08 14:38:00,
2013-01-08 09:43:00,39.8,15.7,30.36,NW,318,4.0,15.0,37,0.00,,---,0.00,VWS V14.01,2013-01-08 14:43:00,
2013-01-08 09:48:00,40.1,15.9,30.36,WSW,255,4.0,15.0,37,0.00,,---,0.00,VWS V14.01,2013-01-08 14:48:00,
2013-01-08 09:53:00,40.3,16.1,30.36,SSW,200,7.0,15.0,37,0.00,,---,0.00,VWS V14.01,2013-01-08 14:53:00,
2013-01-08 09:58:00,40.6,16.4,30.36,West,272,4.0,15.0,37,0.00,,---,0.00,VWS V14.01,2013-01-08 14:58:00,
2013-01-08 10:00:00,27.2,5.5,30.36,NNW,334,0.0,2.0,39,0.00,,---,0.00,VWS V14.01,2013-01-08 15:00:00,
2013-01-08 10:03:00,40.6,16.4,30.36,West,277,2.0,12.0,37,0.00,,---,0.00,VWS V14.01,2013-01-08 15:03:00,
2013-01-08 10:08:00,40.8,16.6,30.36,WSW,243,8.0,14.0,37,0.00,,---,0.00,VWS V14.01,2013-01-08 15:08:00,
2013-01-08 10:13:00,40.8,16.6,30.36,WSW,243,10.0,17.0,37,0.00,,---,0.00,VWS V14.01,2013-01-08 15:13:00,
2013-01-08 10:18:00,40.9,16.6,30.36,West,281,4.0,17.0,37,0.00,,---,0.00,VWS V14.01,2013-01-08 15:18:00,
2013-01-08 10:23:00,41.1,16.8,30.36,WSW,246,5.0,17.0,37,0.00,,---,0.00,VWS V14.01,2013-01-08 15:23:00,
2013-01-08 10:28:00,41.2,16.9,30.36,West,271,7.0,17.0,37,0.00,,---,0.00,VWS V14.01,2013-01-08 15:28:00,
2013-01-08 10:30:00,37.5,14.2,30.36,West,266,7.0,11.0,38,0.00,,---,0.00,VWS V14.01,2013-01-08 15:30:00,
2013-01-08 10:33:00,41.3,17.0,30.36,West,262,8.0,17.0,37,0.00,,---,0.00,VWS V14.01,2013-01-08 15:33:00,
2013-01-08 10:38:00,41.3,17.0,30.36,WNW,293,6.0,17.0,37,0.00,,---,0.00,VWS V14.01,2013-01-08 15:38:00,
2013-01-08 10:43:00,41.5,17.2,30.36,SW,229,17.0,22.0,37,0.00,,---,0.00,VWS V14.01,2013-01-08 15:43:00,
2013-01-08 10:48:00,41.3,17.0,30.34,SSW,212,10.0,22.0,37,0.00,,---,0.00,VWS V14.01,2013-01-08 15:48:00,
2013-01-08 10:53:00,41.5,17.2,30.34,WSW,238,7.0,22.0,37,0.00,,---,0.00,VWS V14.01,2013-01-08 15:53:00,
2013-01-08 10:58:00,41.6,17.3,30.34,WSW,237,19.0,26.0,37,0.00,,---,0.00,VWS V14.01,2013-01-08 15:58:00,
2013-01-08 11:00:00,40.6,16.4,30.36,West,281,11.0,15.0,37,0.00,,---,0.00,VWS V14.01,2013-01-08 16:00:00,
2013-01-08 11:03:00,41.5,17.2,30.34,WSW,237,13.0,19.0,37,0.00,,---,0.00,VWS V14.01,2013-01-08 16:03:00,
2013-01-08 11:08:00,41.8,17.5,30.34,WSW,242,5.0,19.0,37,0.00,,---,0.00,VWS V14.01,2013-01-08 16:08:00,
2013-01-08 11:13:00,42.1,17.7,30.34,WNW,301,12.0,19.0,37,0.00,,---,0.00,VWS V14.01,2013-01-08 16:13:00,
2013-01-08 11:18:00,42.2,17.8,30.33,WSW,245,9.0,19.0,37,0.00,,---,0.00,VWS V14.01,2013-01-08 16:18:00,
2013-01-08 11:23:00,42.2,17.8,30.33,SW,231,10.0,22.0,37,0.00,,---,0.00,VWS V14.01,2013-01-08 16:23:00,
2013-01-08 11:28:00,42.3,17.3,30.33,West,274,7.0,22.0,36,0.00,,---,0.00,VWS V14.01,2013-01-08 16:28:00,
2013-01-08 11:30:00,41.3,17.0,30.36,WSW,239,6.0,17.0,37,0.00,,---,0.00,VWS V14.01,2013-01-08 16:30:00,
2013-01-08 11:33:00,42.5,17.4,30.32,West,274,5.0,17.0,36,0.00,,---,0.00,VWS V14.01,2013-01-08 16:33:00,
2013-01-08 11:38:00,42.8,17.7,30.32,WSW,257,5.0,17.0,36,0.00,,---,0.00,VWS V14.01,2013-01-08 16:38:00,
2013-01-08 11:43:00,42.9,17.8,30.32,SW,236,6.0,17.0,36,0.00,,---,0.00,VWS V14.01,2013-01-08 16:43:00,
2013-01-08 11:48:00,43.1,18.0,30.32,West,260,4.0,17.0,36,0.00,,---,0.00,VWS V14.01,2013-01-08 16:48:00,
2013-01-08 11:53:00,43.3,18.2,30.32,WSW,245,12.0,17.0,36,0.00,,---,0.00,VWS V14.01,2013-01-08 16:53:00,
2013-01-08 11:58:00,43.3,18.2,30.32,WNW,287,7.0,17.0,36,0.00,,---,0.00,VWS V14.01,2013-01-08 16:58:00,
2013-01-08 12:00:00,41.6,17.3,30.34,WSW,237,16.0,26.0,37,0.00,,---,0.00,VWS V14.01,2013-01-08 17:00:00,
2013-01-08 12:03:00,43.5,18.3,30.31,WSW,238,5.0,12.0,36,0.00,,---,0.00,VWS V14.01,2013-01-08 17:03:00,
2013-01-08 12:08:00,43.9,18.7,30.31,West,274,6.0,12.0,36,0.00,,---,0.00,VWS V14.01,2013-01-08 17:08:00,
2013-01-08 12:13:00,43.9,18.7,30.31,West,277,9.0,19.0,36,0.00,,---,0.00,VWS V14.01,2013-01-08 17:13:00,
2013-01-08 12:18:00,43.8,18.6,30.30,West,278,12.0,19.0,36,0.00,,---,0.00,VWS V14.01,2013-01-08 17:18:00,
2013-01-08 12:23:00,43.6,18.4,30.30,West,266,10.0,20.0,36,0.00,,---,0.00,VWS V14.01,2013-01-08 17:23:00,
2013-01-08 12:28:00,43.8,18.6,30.30,WNW,282,7.0,20.0,36,0.00,,---,0.00,VWS V14.01,2013-01-08 17:28:00,
2013-01-08 12:30:00,42.5,17.4,30.32,NW,312,12.0,24.0,36,0.00,,---,0.00,VWS V14.01,2013-01-08 17:30:00,
2013-01-08 12:33:00,44.1,18.9,30.29,SW,219,7.0,15.0,36,0.00,,---,0.00,VWS V14.01,2013-01-08 17:33:00,
2013-01-08 12:38:00,44.3,19.0,30.29,WNW,283,3.0,15.0,36,0.00,,---,0.00,VWS V14.01,2013-01-08 17:38:00,
2013-01-08 12:43:00,44.6,19.3,30.29,SW,229,10.0,15.0,36,0.00,,---,0.00,VWS V14.01,2013-01-08 17:43:00,
2013-01-08 12:48:00,44.8,19.5,30.28,SW,233,9.0,15.0,36,0.00,,---,0.00,VWS V14.01,2013-01-08 17:48:00,
2013-01-08 12:53:00,44.9,19.6,30.28,West,259,3.0,15.0,36,0.00,,---,0.00,VWS V14.01,2013-01-08 17:53:00,
2013-01-08 12:58:00,45.2,19.9,30.28,West,271,9.0,16.0,36,0.00,,---,0.00,VWS V14.01,2013-01-08 17:58:00,
2013-01-08 13:00:00,43.3,18.2,30.31,NNW,343,2.0,17.0,36,0.00,,---,0.00,VWS V14.01,2013-01-08 18:00:00,
2013-01-08 13:03:00,45.2,19.9,30.27,West,275,6.0,13.0,36,0.00,,---,0.00,VWS V14.01,2013-01-08 18:03:00,
2013-01-08 13:08:00,45.4,20.0,30.27,West,264,7.0,15.0,36,0.00,,---,0.00,VWS V14.01,2013-01-08 18:08:00,
2013-01-08 13:13:00,45.4,20.0,30.27,SW,221,6.0,15.0,36,0.00,,---,0.00,VWS V14.01,2013-01-08 18:13:00,
2013-01-08 13:18:00,45.5,20.1,30.28,SW,219,15.0,19.0,36,0.00,,---,0.00,VWS V14.01,2013-01-08 18:18:00,
2013-01-08 13:23:00,45.8,20.4,30.28,West,262,6.0,19.0,36,0.00,,---,0.00,VWS V14.01,2013-01-08 18:23:00,
2013-01-08 13:28:00,45.8,20.4,30.28,West,274,3.0,19.0,36,0.00,,---,0.00,VWS V14.01,2013-01-08 18:28:00,
2013-01-08 13:30:00,43.9,18.7,30.29,WNW,285,14.0,20.0,36,0.00,,---,0.00,VWS V14.01,2013-01-08 18:30:00,
2013-01-08 13:33:00,46.0,20.6,30.28,WSW,255,6.0,14.0,36,0.00,,---,0.00,VWS V14.01,2013-01-08 18:33:00,
2013-01-08 13:38:00,45.8,20.4,30.28,South,189,11.0,15.0,36,0.00,,---,0.00,VWS V14.01,2013-01-08 18:38:00,
2013-01-08 13:43:00,46.0,20.6,30.28,West,262,4.0,15.0,36,0.00,,---,0.00,VWS V14.01,2013-01-08 18:43:00,
2013-01-08 13:48:00,46.1,20.6,30.28,West,276,5.0,15.0,36,0.00,,---,0.00,VWS V14.01,2013-01-08 18:48:00,
2013-01-08 13:53:00,46.1,20.6,30.28,West,260,5.0,15.0,36,0.00,,---,0.00,VWS V14.01,2013-01-08 18:53:00,
2013-01-08 13:58:00,46.0,20.6,30.28,WNW,287,9.0,15.0,36,0.00,,---,0.00,VWS V14.01,2013-01-08 18:58:00,
2013-01-08 14:00:00,45.2,19.9,30.27,WNW,291,3.0,16.0,36,0.00,,---,0.00,VWS V14.01,2013-01-08 19:00:00,
2013-01-08 14:03:00,46.1,20.6,30.28,WNW,295,5.0,8.0,36,0.00,,---,0.00,VWS V14.01,2013-01-08 19:03:00,
2013-01-08 14:08:00,46.1,20.6,30.28,WSW,251,10.0,17.0,36,0.00,,---,0.00,VWS V14.01,2013-01-08 19:08:00,
2013-01-08 14:13:00,46.0,20.6,30.28,SW,231,13.0,17.0,36,0.00,,---,0.00,VWS V14.01,2013-01-08 19:13:00,
2013-01-08 14:18:00,46.0,20.6,30.28,West,274,2.0,17.0,36,0.00,,---,0.00,VWS V14.01,2013-01-08 19:18:00,
2013-01-08 14:23:00,46.0,20.6,30.28,SW,229,4.0,17.0,36,0.00,,---,0.00,VWS V14.01,2013-01-08 19:23:00,
2013-01-08 14:28:00,46.2,20.7,30.28,SSW,195,3.0,17.0,36,0.00,,---,0.00,VWS V14.01,2013-01-08 19:28:00,
2013-01-08 14:30:00,46.0,20.6,30.28,South,176,5.0,19.0,36,0.00,,---,0.00,VWS V14.01,2013-01-08 19:30:00,
2013-01-08 14:33:00,46.2,20.7,30.28,West,281,10.0,14.0,36,0.00,,---,0.00,VWS V14.01,2013-01-08 19:33:00,
2013-01-08 14:38:00,46.2,20.7,30.28,SW,228,9.0,14.0,36,0.00,,---,0.00,VWS V14.01,2013-01-08 19:38:00,
2013-01-08 14:43:00,46.2,20.7,30.28,WSW,250,10.0,16.0,36,0.00,,---,0.00,VWS V14.01,2013-01-08 19:43:00,
2013-01-08 14:48:00,46.4,20.9,30.28,WSW,249,4.0,16.0,36,0.00,,---,0.00,VWS V14.01,2013-01-08 19:48:00,
2013-01-08 14:53:00,46.2,20.7,30.28,West,276,5.0,19.0,36,0.00,,---,0.00,VWS V14.01,2013-01-08 19:53:00,
2013-01-08 14:58:00,46.4,20.9,30.28,NW,305,8.0,19.0,36,0.00,,---,0.00,VWS V14.01,2013-01-08 19:58:00,
2013-01-08 15:00:00,46.0,20.6,30.28,WSW,257,5.0,16.0,36,0.00,,---,0.00,VWS V14.01,2013-01-08 20:00:00,
2013-01-08 15:03:00,46.2,20.7,30.28,WSW,245,11.0,18.0,36,0.00,,---,0.00,VWS V14.01,2013-01-08 20:03:00,
2013-01-08 15:08:00,46.2,20.7,30.28,West,277,2.0,18.0,36,0.00,,---,0.00,VWS V14.01,2013-01-08 20:08:00,
2013-01-08 15:13:00,46.2,20.7,30.28,WSW,240,4.0,20.0,36,0.00,,---,0.00,VWS V14.01,2013-01-08 20:13:00,
2013-01-08 15:18:00,46.1,20.6,30.27,SW,236,12.0,20.0,36,0.00,,---,0.00,VWS V14.01,2013-01-08 20:18:00,
2013-01-08 15:23:00,46.0,20.6,30.27,WNW,285,4.0,20.0,36,0.00,,---,0.00,VWS V14.01,2013-01-08 20:23:00,
2013-01-08 15:28:00,46.1,20.6,30.27,West,271,10.0,20.0,36,0.00,,---,0.00,VWS V14.01,2013-01-08 20:28:00,
2013-01-08 15:30:00,46.2,20.7,30.28,WSW,238,3.0,17.0,36,0.00,,---,0.00,VWS V14.01,2013-01-08 20:30:00,
2013-01-08 15:33:00,46.0,20.6,30.27,West,264,5.0,16.0,36,0.00,,---,0.00,VWS V14.01,2013-01-08 20:33:00,
2013-01-08 15:38:00,45.8,20.4,30.27,SW,235,9.0,17.0,36,0.00,,---,0.00,VWS V14.01,2013-01-08 20:38:00,
2013-01-08 15:43:00,45.7,20.3,30.27,SW,226,4.0,17.0,36,0.00,,---,0.00,VWS V14.01,2013-01-08 20:43:00,
2013-01-08 15:48:00,45.5,20.1,30.27,WSW,247,6.0,17.0,36,0.00,,---,0.00,VWS V14.01,2013-01-08 20:48:00,
2013-01-08 15:53:00,45.4,20.0,30.27,West,276,4.0,17.0,36,0.00,,---,0.00,VWS V14.01,2013-01-08 20:53:00,
2013-01-08 15:58:00,45.1,19.8,30.27,WSW,252,6.0,17.0,36,0.00,,---,0.00,VWS V14.01,2013-01-08 20:58:00,
2013-01-08 16:00:00,46.2,20.7,30.28,West,271,11.0,19.0,36,0.00,,---,0.00,VWS V14.01,2013-01-08 21:00:00,
2013-01-08 16:03:00,45.1,19.8,30.27,West,263,2.0,8.0,36,0.00,,---,0.00,VWS V14.01,2013-01-08 21:03:00,
2013-01-08 16:08:00,44.9,19.6,30.27,West,276,4.0,8.0,36,0.00,,---,0.00,VWS V14.01,2013-01-08 21:08:00,
2013-01-08 16:13:00,44.6,19.3,30.27,West,276,3.0,9.0,36,0.00,,---,0.00,VWS V14.01,2013-01-08 21:13:00,
2013-01-08 16:18:00,44.5,19.2,30.27,WSW,253,4.0,9.0,36,0.00,,---,0.00,VWS V14.01,2013-01-08 21:18:00,
2013-01-08 16:23:00,44.3,19.0,30.27,West,267,2.0,9.0,36,0.00,,---,0.00,VWS V14.01,2013-01-08 21:23:00,
2013-01-08 16:28:00,44.2,19.0,30.27,WNW,294,4.0,9.0,36,0.00,,---,0.00,VWS V14.01,2013-01-08 21:28:00,
2013-01-08 16:30:00,46.0,20.6,30.27,WSW,253,9.0,20.0,36,0.00,,---,0.00,VWS V14.01,2013-01-08 21:30:00,
2013-01-08 16:33:00,44.1,18.9,30.27,West,272,4.0,8.0,36,0.00,,---,0.00,VWS V14.01,2013-01-08 21:33:00,
2013-01-08 16:38:00,43.9,18.7,30.27,WSW,248,4.0,8.0,36,0.00,,---,0.00,VWS V14.01,2013-01-08 21:38:00,
2013-01-08 16:43:00,43.6,18.4,30.27,SW,221,5.0,8.0,36,0.00,,---,0.00,VWS V14.01,2013-01-08 21:43:00,
2013-01-08 16:48:00,43.5,18.3,30.27,West,271,0.0,8.0,36,0.00,,---,0.00,VWS V14.01,2013-01-08 21:48:00,
2013-01-08 16:53:00,43.3,18.2,30.27,West,272,3.0,8.0,36,0.00,,---,0.00,VWS V14.01,2013-01-08 21:53:00,
2013-01-08 16:58:00,43.2,18.1,30.27,West,272,3.0,8.0,36,0.00,,---,0.00,VWS V14.01,2013-01-08 21:58:00,
2013-01-08 17:00:00,45.1,19.8,30.27,West,265,1.0,17.0,36,0.00,,---,0.00,VWS V14.01,2013-01-08 22:00:00,
2013-01-08 17:03:00,42.9,17.8,30.27,WSW,254,2.0,6.0,36,0.00,,---,0.00,VWS V14.01,2013-01-08 22:03:00,
2013-01-08 17:08:00,42.8,17.7,30.27,WSW,254,3.0,6.0,36,0.00,,---,0.00,VWS V14.01,2013-01-08 22:08:00,
2013-01-08 17:13:00,42.5,18.1,30.27,West,259,3.0,6.0,37,0.00,,---,0.00,VWS V14.01,2013-01-08 22:13:00,
2013-01-08 17:18:00,42.3,17.9,30.28,West,274,2.0,6.0,37,0.00,,---,0.00,VWS V14.01,2013-01-08 22:18:00,
2013-01-08 17:23:00,42.1,17.7,30.28,West,279,0.0,6.0,37,0.00,,---,0.00,VWS V14.01,2013-01-08 22:23:00,
2013-01-08 17:28:00,41.6,17.3,30.28,West,278,1.0,6.0,37,0.00,,---,0.00,VWS V14.01,2013-01-08 22:28:00,
2013-01-08 17:30:00,44.1,18.9,30.27,West,278,6.0,9.0,36,0.00,,---,0.00,VWS V14.01,2013-01-08 22:30:00,
2013-01-08 17:33:00,41.2,16.9,30.28,West,278,0.0,4.0,37,0.00,,---,0.00,VWS V14.01,2013-01-08 22:33:00,
2013-01-08 17:38:00,40.8,16.6,30.28,WNW,288,2.0,4.0,37,0.00,,---,0.00,VWS V14.01,2013-01-08 22:38:00,
2013-01-08 17:43:00,40.5,16.3,30.28,WNW,288,0.0,4.0,37,0.00,,---,0.00,VWS V14.01,2013-01-08 22:43:00,
2013-01-08 17:48:00,39.9,15.8,30.28,WNW,288,0.0,4.0,37,0.00,,---,0.00,VWS V14.01,2013-01-08 22:48:00,
2013-01-08 17:53:00,39.6,15.5,30.28,WNW,288,1.0,4.0,37,0.00,,---,0.00,VWS V14.01,2013-01-08 22:53:00,
2013-01-08 17:58:00,39.9,15.8,30.28,WNW,286,0.0,4.0,37,0.00,,---,0.00,VWS V14.01,2013-01-08 22:58:00,
2013-01-08 18:00:00,43.1,18.0,30.27,WSW,258,6.0,8.0,36,0.00,,---,0.00,VWS V14.01,2013-01-08 23:00:00,
2013-01-08 18:03:00,39.9,15.8,30.28,WNW,287,0.0,1.0,37,0.00,,---,0.00,VWS V14.01,2013-01-08 23:03:00,
2013-01-08 18:08:00,39.8,15.7,30.28,WNW,286,1.0,2.0,37,0.00,,---,0.00,VWS V14.01,2013-01-08 23:08:00,
2013-01-08 18:13:00,39.3,15.2,30.28,WNW,286,0.0,2.0,37,0.00,,---,0.00,VWS V14.01,2013-01-08 23:13:00,
2013-01-08 18:18:00,39.5,15.4,30.29,WNW,286,0.0,2.0,37,0.00,,---,0.00,VWS V14.01,2013-01-08 23:18:00,
2013-01-08 18:23:00,39.2,15.1,30.29,WNW,286,0.0,2.0,37,0.00,,---,0.00,VWS V14.01,2013-01-08 23:23:00,
2013-01-08 18:28:00,39.1,15.0,30.29,WNW,287,0.0,2.0,37,0.00,,---,0.00,VWS V14.01,2013-01-08 23:28:00,
2013-01-08 18:30:00,41.3,17.0,30.28,West,278,3.0,6.0,37,0.00,,---,0.00,VWS V14.01,2013-01-08 23:30:00,
2013-01-08 18:33:00,38.8,14.8,30.29,WNW,286,0.0,1.0,37,0.00,,---,0.00,VWS V14.01,2013-01-08 23:33:00,
2013-01-08 18:38:00,38.6,14.6,30.29,WNW,286,1.0,2.0,37,0.00,,---,0.00,VWS V14.01,2013-01-08 23:38:00,
2013-01-08 18:43:00,38.2,14.2,30.29,WNW,286,0.0,2.0,37,0.00,,---,0.00,VWS V14.01,2013-01-08 23:43:00,
2013-01-08 18:48:00,37.6,14.3,30.29,WNW,286,0.0,2.0,38,0.00,,---,0.00,VWS V14.01,2013-01-08 23:48:00,
2013-01-08 18:53:00,37.2,13.9,30.29,WNW,287,0.0,2.0,38,0.00,,---,0.00,VWS V14.01,2013-01-08 23:53:00,
2013-01-08 18:58:00,36.9,13.7,30.29,WNW,286,1.0,2.0,38,0.00,,---,0.00,VWS V14.01,2013-01-08 23:58:00,
2013-01-08 19:00:00,39.9,15.8,30.28,WNW,287,0.0,4.0,37,0.00,,---,0.00,VWS V14.01,2013-01-09 00:00:00,
2013-01-08 19:03:00,36.8,13.6,30.30,WNW,286,0.0,2.0,38,0.00,,---,0.00,VWS V14.01,2013-01-09 00:03:00,
2013-01-08 19:08:00,36.6,13.4,30.30,WNW,287,0.0,2.0,38,0.00,,---,0.00,VWS V14.01,2013-01-09 00:08:00,
2013-01-08 19:13:00,36.6,13.4,30.30,WNW,286,0.0,2.0,38,0.00,,---,0.00,VWS V14.01,2013-01-09 00:13:00,
2013-01-08 19:18:00,36.3,13.1,30.30,WNW,286,1.0,2.0,38,0.00,,---,0.00,VWS V14.01,2013-01-09 00:18:00,
2013-01-08 19:23:00,35.9,12.8,30.30,WNW,286,0.0,2.0,38,0.00,,---,0.00,VWS V14.01,2013-01-09 00:23:00,
2013-01-08 19:28:00,35.5,12.4,30.30,WNW,286,0.0,2.0,38,0.00,,---,0.00,VWS V14.01,2013-01-09 00:28:00,
2013-01-08 19:30:00,38.9,14.9,30.29,WNW,286,0.0,2.0,37,0.00,,---,0.00,VWS V14.01,2013-01-09 00:30:00,
2013-01-08 19:33:00,35.5,12.4,30.31,WNW,286,1.0,1.0,38,0.00,,---,0.00,VWS V14.01,2013-01-09 00:33:00,
2013-01-08 19:38:00,35.2,12.1,30.31,WNW,286,0.0,1.0,38,0.00,,---,0.00,VWS V14.01,2013-01-09 00:38:00,
2013-01-08 19:43:00,35.0,12.0,30.31,WNW,286,0.0,1.0,38,0.00,,---,0.00,VWS V14.01,2013-01-09 00:43:00,
2013-01-08 19:48:00,34.7,11.7,30.31,WNW,286,0.0,1.0,38,0.00,,---,0.00,VWS V14.01,2013-01-09 00:48:00,
2013-01-08 19:53:00,34.4,11.4,30.31,WNW,286,0.0,1.0,38,0.00,,---,0.00,VWS V14.01,2013-01-09 00:53:00,
2013-01-08 19:58:00,34.1,11.2,30.31,WNW,286,0.0,1.0,38,0.00,,---,0.00,VWS V14.01,2013-01-09 00:58:00,
2013-01-08 20:00:00,36.8,13.6,30.30,WNW,286,0.0,2.0,38,0.00,,---,0.00,VWS V14.01,2013-01-09 01:00:00,
2013-01-08 20:03:00,33.8,10.9,30.31,WNW,286,0.0,0.0,38,0.00,,---,0.00,VWS V14.01,2013-01-09 01:03:00,
2013-01-08 20:08:00,33.5,10.6,30.31,WNW,287,0.0,0.0,38,0.00,,---,0.00,VWS V14.01,2013-01-09 01:08:00,
2013-01-08 20:13:00,33.4,10.5,30.31,WNW,286,0.0,0.0,38,0.00,,---,0.00,VWS V14.01,2013-01-09 01:13:00,
2013-01-08 20:18:00,33.1,10.3,30.31,WNW,286,0.0,0.0,38,0.00,,---,0.00,VWS V14.01,2013-01-09 01:18:00,
2013-01-08 20:23:00,32.8,10.0,30.31,WNW,286,0.0,0.0,38,0.00,,---,0.00,VWS V14.01,2013-01-09 01:23:00,
2013-01-08 20:28:00,32.7,10.5,30.31,WNW,286,0.0,0.0,39,0.00,,---,0.00,VWS V14.01,2013-01-09 01:28:00,
2013-01-08 20:30:00,35.5,12.4,30.31,WNW,286,0.0,2.0,38,0.00,,---,0.00,VWS V14.01,2013-01-09 01:30:00,
2013-01-08 20:33:00,32.4,10.2,30.31,WNW,286,0.0,0.0,39,0.00,,---,0.00,VWS V14.01,2013-01-09 01:33:00,
2013-01-08 20:38:00,32.1,9.9,30.31,WNW,286,0.0,0.0,39,0.00,,---,0.00,VWS V14.01,2013-01-09 01:38:00,
2013-01-08 20:43:00,31.9,9.8,30.31,WNW,286,0.0,0.0,39,0.00,,---,0.00,VWS V14.01,2013-01-09 01:43:00,
2013-01-08 20:48:00,31.8,9.7,30.31,WNW,286,0.0,0.0,39,0.00,,---,0.00,VWS V14.01,2013-01-09 01:48:00,
2013-01-08 20:53:00,31.6,9.5,30.31,WNW,286,0.0,0.0,39,0.00,,---,0.00,VWS V14.01,2013-01-09 01:53:00,
2013-01-08 20:58:00,31.5,9.4,30.31,WNW,286,0.0,0.0,39,0.00,,---,0.00,VWS V14.01,2013-01-09 01:58:00,
2013-01-08 21:00:00,34.0,11.1,30.31,WNW,286,0.0,1.0,38,0.00,,---,0.00,VWS V14.01,2013-01-09 02:00:00,
2013-01-08 21:03:00,31.3,9.2,30.31,WNW,286,0.0,1.0,39,0.00,,---,0.00,VWS V14.01,2013-01-09 02:03:00,
2013-01-08 21:08:00,31.0,9.0,30.31,WNW,286,0.0,1.0,39,0.00,,---,0.00,VWS V14.01,2013-01-09 02:08:00,
2013-01-08 21:13:00,30.9,8.9,30.31,WNW,286,0.0,1.0,39,0.00,,---,0.00,VWS V14.01,2013-01-09 02:13:00,
2013-01-08 21:18:00,30.9,8.9,30.31,WNW,286,0.0,1.0,39,0.00,,---,0.00,VWS V14.01,2013-01-09 02:18:00,
2013-01-08 21:23:00,30.9,8.9,30.31,WNW,286,0.0,1.0,39,0.00,,---,0.00,VWS V14.01,2013-01-09 02:23:00,
2013-01-08 21:28:00,30.9,8.9,30.31,WNW,286,0.0,1.0,39,0.00,,---,0.00,VWS V14.01,2013-01-09 02:28:00,
2013-01-08 21:30:00,32.5,10.3,30.31,WNW,286,0.0,0.0,39,0.00,,---,0.00,VWS V14.01,2013-01-09 02:30:00,
2013-01-08 21:33:00,30.7,8.7,30.31,WNW,286,0.0,0.0,39,0.00,,---,0.00,VWS V14.01,2013-01-09 02:33:00,
2013-01-08 21:38:00,30.6,8.6,30.31,WNW,286,0.0,0.0,39,0.00,,---,0.00,VWS V14.01,2013-01-09 02:38:00,
2013-01-08 21:43:00,30.6,8.6,30.31,WNW,286,0.0,0.0,39,0.00,,---,0.00,VWS V14.01,2013-01-09 02:43:00,
2013-01-08 21:48:00,30.4,8.4,30.31,WNW,286,0.0,0.0,39,0.00,,---,0.00,VWS V14.01,2013-01-09 02:48:00,
2013-01-08 21:53:00,30.3,8.3,30.31,WNW,287,0.0,0.0,39,0.00,,---,0.00,VWS V14.01,2013-01-09 02:53:00,
2013-01-08 21:58:00,30.3,8.3,30.31,WNW,286,0.0,0.0,39,0.00,,---,0.00,VWS V14.01,2013-01-09 02:58:00,
2013-01-08 22:00:00,31.3,9.2,30.31,WNW,286,0.0,0.0,39,0.00,,---,0.00,VWS V14.01,2013-01-09 03:00:00,
2013-01-08 22:03:00,30.1,8.1,30.31,WNW,286,0.0,0.0,39,0.00,,---,0.00,VWS V14.01,2013-01-09 03:03:00,
2013-01-08 22:08:00,30.1,8.1,30.31,WNW,286,0.0,0.0,39,0.00,,---,0.00,VWS V14.01,2013-01-09 03:08:00,
2013-01-08 22:13:00,30.1,8.1,30.31,WNW,287,0.0,0.0,39,0.00,,---,0.00,VWS V14.01,2013-01-09 03:13:00,
2013-01-08 22:18:00,30.0,8.1,30.31,WNW,286,0.0,0.0,39,0.00,,---,0.00,VWS V14.01,2013-01-09 03:18:00,
2013-01-08 22:23:00,30.0,8.1,30.31,WNW,286,0.0,0.0,39,0.00,,---,0.00,VWS V14.01,2013-01-09 03:23:00,
2013-01-08 22:28:00,30.0,8.1,30.31,WNW,286,0.0,0.0,39,0.00,,---,0.00,VWS V14.01,2013-01-09 03:28:00,
2013-01-08 22:30:00,30.9,8.9,30.31,WNW,286,0.0,1.0,39,0.00,,---,0.00,VWS V14.01,2013-01-09 03:30:00,
2013-01-08 22:33:00,29.8,7.9,30.31,WNW,286,0.0,0.0,39,0.00,,---,0.00,VWS V14.01,2013-01-09 03:33:00,
2013-01-08 22:38:00,29.7,7.8,30.31,WNW,286,0.0,0.0,39,0.00,,---,0.00,VWS V14.01,2013-01-09 03:38:00,
2013-01-08 22:43:00,29.7,7.8,30.31,WNW,286,0.0,0.0,39,0.00,,---,0.00,VWS V14.01,2013-01-09 03:43:00,
2013-01-08 22:48:00,29.7,7.8,30.32,WNW,286,0.0,0.0,39,0.00,,---,0.00,VWS V14.01,2013-01-09 03:48:00,
2013-01-08 22:53:00,29.5,7.6,30.32,WNW,286,0.0,0.0,39,0.00,,---,0.00,VWS V14.01,2013-01-09 03:53:00,
2013-01-08 22:58:00,29.5,7.6,30.32,WNW,287,0.0,0.0,39,0.00,,---,0.00,VWS V14.01,2013-01-09 03:58:00,
2013-01-08 23:00:00,30.1,8.1,30.31,WNW,286,0.0,0.0,39,0.00,,---,0.00,VWS V14.01,2013-01-09 04:00:00,
2013-01-08 23:03:00,29.4,7.5,30.32,WNW,286,0.0,0.0,39,0.00,,---,0.00,VWS V14.01,2013-01-09 04:03:00,
2013-01-08 23:08:00,29.4,7.5,30.32,WNW,286,0.0,0.0,39,0.00,,---,0.00,VWS V14.01,2013-01-09 04:08:00,
2013-01-08 23:13:00,29.3,7.4,30.32,WNW,286,0.0,0.0,39,0.00,,---,0.00,VWS V14.01,2013-01-09 04:13:00,
2013-01-08 23:18:00,29.1,7.2,30.31,WNW,287,0.0,0.0,39,0.00,,---,0.00,VWS V14.01,2013-01-09 04:18:00,
2013-01-08 23:23:00,29.0,7.2,30.31,WNW,286,0.0,0.0,39,0.00,,---,0.00,VWS V14.01,2013-01-09 04:23:00,
2013-01-08 23:28:00,29.0,7.2,30.31,WNW,286,0.0,0.0,39,0.00,,---,0.00,VWS V14.01,2013-01-09 04:28:00,
2013-01-08 23:30:00,29.8,7.9,30.31,WNW,286,0.0,0.0,39,0.00,,---,0.00,VWS V14.01,2013-01-09 04:30:00,
2013-01-08 23:33:00,29.0,7.2,30.31,WNW,286,0.0,0.0,39,0.00,,---,0.00,VWS V14.01,2013-01-09 04:33:00,
2013-01-08 23:38:00,29.0,7.2,30.31,WNW,286,0.0,0.0,39,0.00,,---,0.00,VWS V14.01,2013-01-09 04:38:00,
2013-01-08 23:43:00,28.8,7.0,30.31,WNW,286,0.0,0.0,39,0.00,,---,0.00,VWS V14.01,2013-01-09 04:43:00,
2013-01-08 23:48:00,28.5,6.7,30.31,WNW,286,0.0,0.0,39,0.00,,---,0.00,VWS V14.01,2013-01-09 04:48:00,
2013-01-08 23:53:00,28.4,6.6,30.31,WNW,286,0.0,0.0,39,0.00,,---,0.00,VWS V14.01,2013-01-09 04:53:00,
2013-01-08 23:58:00,28.2,6.4,30.31,WNW,286,0.0,0.0,39,0.00,,---,0.00,VWS V14.01,2013-01-09 04:58:00,